Williston, ND

8:32 AM CDT on October 21, 2019 (GMT -0500)
Sloulin International

Weather History for KISN - August, 2019

Change the Weather History Date:

Thursday, August 22, 2019

  Actual Average Record
Temperature  
Mean Temperature 74 °F 68 °F  
Max Temperature 87 °F 83 °F 103 °F (1969)
Min Temperature 60 °F 53 °F 32 °F (1911)
Degree Days  
Heating Degree Days 0 2  
Month to date heating degree days 19 25  
Since 1 June heating degree days 104 169  
Since 1 July heating degree days 34 49  
Cooling Degree Days 9 4  
Month to date cooling degree days 105 135  
Year to date cooling degree days 349 398  
Since 1 June cooling degree days 343 385  
Growing Degree Days 24 (Base 50)    
Moisture  
Dew Point 58 °F    
Average Humidity 59    
Maximum Humidity 73    
Minimum Humidity 45    
Precipitation  
Precipitation 0.00 in 0.05 in 0.83 in (1946)
Month to date precipitation 1.88 1.05  
Year to date precipitation 11.54 10.72  
Sea Level Pressure  
Sea Level Pressure 29.88 in    
Wind  
Wind Speed 13 mph (SE)    
Max Wind Speed 31 mph    
Max Gust Speed 44 mph    
Visibility 10 miles    
Events      
T = Trace of Precipitation, MM = Missing Value Source: NWS Daily Summary

Daily Weather History Graph

Daily Weather History Graph

Search for Another Location

Airport or City:

Astronomy

Aug. 22, 2019 Rise Set
Actual Time 6:58 AM CDT 8:55 PM CDT
Civil Twilight 6:24 AM CDT 9:28 PM CDT
Nautical Twilight 5:43 AM CDT 10:10 PM CDT
Astronomical Twilight 4:57 AM CDT 10:55 PM CDT
Moon No Moon Rise 2:06 PM CDT (8/22)
Length of Visible Light 15h 04m
Length of Day
13h 57m
Waning Gibbous, 59% of the Moon is Illuminated
Aug 22
Waning Gibbous
Aug 23
Last Quarter
Aug 30
New
Sep 5
First Quarter
Sep 13
Full

Hourly Weather History & Observations

Time (CDT) Temp. Heat Index Dew Point Humidity Pressure Visibility Wind Dir Wind Speed Gust Speed Precip Events Conditions
12:52 AM 64.0 °F - 48.9 °F 58% 30.00 in 10.0 mi ESE 6.9 mph - N/A   Clear
1:52 AM 64.9 °F - 48.0 °F 54% 29.98 in 10.0 mi ESE 6.9 mph - N/A   Clear
2:52 AM 62.1 °F - 50.0 °F 65% 29.96 in 10.0 mi ESE 8.1 mph - N/A   Clear
3:52 AM 62.1 °F - 50.0 °F 65% 29.94 in 10.0 mi East 5.8 mph - N/A   Clear
4:52 AM 60.1 °F - 50.0 °F 69% 29.94 in 10.0 mi ESE 4.6 mph - N/A   Clear
5:52 AM 61.0 °F - 50.0 °F 67% 29.91 in 10.0 mi East 6.9 mph - N/A   Clear
6:52 AM 62.1 °F - 51.1 °F 67% 29.93 in 10.0 mi North - - N/A   Clear
7:52 AM 61.0 °F - 52.0 °F 72% 29.93 in 10.0 mi East 11.5 mph - N/A   Clear
8:52 AM 64.0 °F - 53.1 °F 67% 29.92 in 10.0 mi ESE 11.5 mph 18.4 mph N/A   Clear
9:52 AM 69.1 °F - 55.9 °F 63% 29.90 in 10.0 mi ESE 17.3 mph 32.2 mph N/A   Clear
10:52 AM 73.0 °F - 57.9 °F 59% 29.89 in 10.0 mi ESE 17.3 mph 33.4 mph N/A   Clear
11:52 AM 78.1 °F - 61.0 °F 56% 29.86 in 10.0 mi SE 18.4 mph 39.1 mph N/A   Clear
12:52 PM 80.1 °F 81.1 °F 61.0 °F 52% 29.84 in 10.0 mi SE 17.3 mph 40.3 mph N/A   Clear
1:52 PM 82.9 °F 83.3 °F 61.0 °F 47% 29.82 in 10.0 mi ESE 21.9 mph 40.3 mph N/A   Clear
2:52 PM 84.9 °F 85.9 °F 63.0 °F 48% 29.81 in 10.0 mi ESE 21.9 mph 41.4 mph N/A   Clear
3:52 PM 86.0 °F 86.8 °F 63.0 °F 46% 29.81 in 10.0 mi SE 21.9 mph 42.6 mph N/A   Clear
4:52 PM 84.9 °F 85.9 °F 63.0 °F 48% 29.79 in 10.0 mi SE 18.4 mph 41.4 mph N/A   Clear
5:52 PM 84.9 °F 86.1 °F 64.0 °F 49% 29.79 in 10.0 mi SE 15.0 mph 38.0 mph N/A   Partly Cloudy
6:52 PM 82.9 °F 84.4 °F 64.0 °F 53% 29.80 in 10.0 mi SE 13.8 mph 35.7 mph N/A   Clear
7:52 PM 80.1 °F 81.7 °F 64.0 °F 58% 29.80 in 10.0 mi SE 13.8 mph 34.5 mph N/A   Clear
8:52 PM 77.0 °F - 64.0 °F 64% 29.81 in 10.0 mi SE 11.5 mph 21.9 mph N/A   Clear
9:52 PM 75.0 °F - 64.0 °F 69% 29.83 in 10.0 mi SE 9.2 mph - N/A   Mostly Cloudy
10:52 PM 73.0 °F - 63.0 °F 71% 29.83 in 10.0 mi SE 11.5 mph 34.5 mph N/A   Clear
11:44 PM 72.0 °F - 63.0 °F 73% 29.88 in 10.0 mi SE 12.7 mph - N/A   Mostly Cloudy
11:52 PM 72.0 °F - 63.0 °F 73% 29.84 in 10.0 mi SE 12.7 mph - N/A   Mostly Cloudy